Location: Asheville, NC
(35.6000°N, 82.5500°W)
Time: 22:39:12
(UTC-05:00)

OTV 5 (USA 277) - Visible Passes

Search period start: 12 December 2017 00:00
Search period end: 22 December 2017 00:00
Orbit: 404 x 417 km, 43.0° (Epoch: 07 September)

Date Brightness Start Highest point End Pass type
(mag) Time Alt. Az. Time Alt. Az. Time Alt. Az.
12 Dec ? 19:04:35 10° WNW 19:07:02 42° NW 19:07:02 42° NW visible
13 Dec ? 18:13:34 10° NW 18:16:48 42° NNE 18:18:47 20° E visible
13 Dec ? 19:51:00 10° W 19:51:35 14° W 19:51:35 14° W visible
14 Dec ? 18:59:46 10° WNW 19:03:04 54° SSW 19:03:33 48° S visible
15 Dec ? 18:08:39 10° WNW 18:12:02 87° SSW 18:15:23 10° ESE visible
15 Dec ? 19:47:28 10° WSW 19:48:37 12° SW 19:48:37 12° SW visible
16 Dec ? 18:55:29 10° W 18:58:03 20° SW 19:00:35 10° SSE visible
17 Dec ? 18:04:02 10° W 18:07:06 32° SW 18:10:08 10° SSE visible
19 Dec ? 18:00:32 10° WSW 18:01:59 12° SW 18:03:25 10° SSW visible
